Location: Spondin
(51.8528°N, 111.6118°W)
Time: 18:43:06
(UTC+00:00)

Vanguard 2 Rocket - Pass Details

Date: 27 May 2022
Orbit: 553 x 3323 km, 32.9° (Epoch: 02 July)

Event Time Altitude Azimuth Distance (km) Brightness Sun altitude
Rises 01:00:08 0° 264° (W) 6,635 12.7 20.1°
Reaches altitude 10° 01:06:18 10° 252° (WSW) 5,149 12.0 19.2°
Maximum altitude 01:15:45 22° 210° (SSW) 3,354 10.1 17.8°
Drops below altitude 10° 01:22:25 10° 163° (SSE) 3,483 9.6 16.8°
Sets 01:25:35 0° 148° (SSE) 4,078 9.8 16.3°
